WXM80 ListenWXM80 Stop

You find our weather info also at:

UK Metoffice

WeatherCloud

Weather Underground

Northeastern Weather Network

AWEKAS

Citizen Weather Observer Program (CWOP)

HAMweather, WeatherForYou, PWS Weather


Weather Underground History page Text

Daily Summary for April 26, 2017 Units:  Metric    English   Both
« Previous Day
Next Day »
Daily Weekly Monthly Yearly Custom
  High: Low: Average:
Temperature: 15.3 °C 9.7 °C 11.9 °C
Dew Point: 14.7 °C 9.4 °C 11.5 °C
Humidity: 99 % 91 % 98 %
Wind Speed: 20.1 km/h 0 km/h 5.5 km/h
Wind Gust: 29.6 km/h - -
Wind:- - East
Pressure: 1010.4 hPa 1006.3 hPa -
Precipitation: 3.05 mm    
Historical Graphs
 
 
Tabular Data for April 26, 2017
Time Temperature Dew Point Pressure Wind Wind Speed Wind Gust Humidity Rainfall Rate (Hourly)
00:01 9.7 °C 9.4 °C 1010.4 hPa East 14.5 km/h 14.8 km/h 98 % 0.51 mm
00:07 9.8 °C 9.5 °C 1010.4 hPa ENE 16.7 km/h 18.5 km/h 98 % 0.51 mm
00:12 9.9 °C 9.7 °C 1010 hPa ENE 20.1 km/h 29.6 km/h 98 % 0.76 mm
00:17 10.1 °C 9.8 °C 1010 hPa ENE 15 km/h 22.2 km/h 98 % 0.51 mm
00:22 10.1 °C 9.9 °C 1010 hPa ENE 13.8 km/h 18.5 km/h 99 % 0.51 mm
00:27 10.1 °C 9.9 °C 1010 hPa East 11.6 km/h 14.8 km/h 99 % 0.51 mm
00:32 10.2 °C 10 °C 1010 hPa ENE 12.4 km/h 16.7 km/h 99 % 0.51 mm
00:37 10.2 °C 10 °C 1009.7 hPa East 13.2 km/h 20.4 km/h 99 % 0.51 mm
00:42 10.2 °C 10.1 °C 1009.7 hPa ENE 16.7 km/h 25.9 km/h 99 % 0.51 mm
00:47 10.2 °C 9.9 °C 1009.4 hPa ENE 19.3 km/h 29 km/h 98 % 0.51 mm
00:52 10.2 °C 9.9 °C 1009.4 hPa ENE 17.9 km/h 22.5 km/h 98 % 0.25 mm
00:57 10.2 °C 9.9 °C 1009.4 hPa ENE 10.6 km/h 20.4 km/h 98 % 0.25 mm
01:03 10.2 °C 9.9 °C 1009 hPa East 10.6 km/h 20.4 km/h 98 % 0.25 mm
01:08 10.3 °C 10 °C 1008.7 hPa East 16.3 km/h 24.1 km/h 98 % 0.25 mm
01:13 10.3 °C 10.1 °C 1008.7 hPa ENE 14.5 km/h 18.5 km/h 98 % 0 mm
01:18 10.3 °C 10 °C 1008.7 hPa East 14.5 km/h 20.4 km/h 98 % 0 mm
01:23 10.2 °C 9.9 °C 1008.7 hPa ENE 13.8 km/h 20.4 km/h 98 % 0 mm
01:28 10.2 °C 10 °C 1008.4 hPa East 11.9 km/h 14.8 km/h 99 % 0 mm
01:33 10.2 °C 10 °C 1008.4 hPa East 10.9 km/h 13 km/h 99 % 0 mm
01:38 10.2 °C 10.1 °C 1008.4 hPa ENE 12.7 km/h 16.1 km/h 99 % 0 mm
01:43 10.3 °C 10 °C 1008 hPa East 14.5 km/h 16.7 km/h 98 % 0 mm
01:48 10.3 °C 10.1 °C 1008 hPa ENE 14 km/h 16.7 km/h 98 % 0 mm
01:54 10.4 °C 10.3 °C 1008 hPa East 10.9 km/h 14.8 km/h 99 % 0 mm
01:59 10.3 °C 10.1 °C 1008 hPa East 11.9 km/h 14.8 km/h 98 % 0 mm
02:04 10.3 °C 10 °C 1008.4 hPa East 7.7 km/h 13 km/h 98 % 0 mm
02:09 10.2 °C 9.9 °C 1008.4 hPa ENE 5.1 km/h 7.4 km/h 98 % 0 mm
02:14 10.2 °C 9.9 °C 1008.4 hPa East 13.2 km/h 16.7 km/h 98 % 0 mm
02:19 10.4 °C 10.1 °C 1008.4 hPa East 14.3 km/h 18.5 km/h 98 % 0 mm
02:24 10.4 °C 10.1 °C 1008 hPa East 11.9 km/h 16.7 km/h 98 % 0 mm
02:29 10.3 °C 10.1 °C 1008 hPa East 9.8 km/h 14.8 km/h 98 % 0 mm
02:34 10.3 °C 10 °C 1008 hPa East 8.4 km/h 11.1 km/h 98 % 0 mm
02:39 10.2 °C 9.9 °C 1008 hPa East 6 km/h 11.1 km/h 98 % 0 mm
02:44 10.2 °C 10 °C 1008 hPa East 7.9 km/h 9.7 km/h 99 % 0 mm
02:50 10.1 °C 9.9 °C 1007.7 hPa ESE 2.1 km/h 7.4 km/h 99 % 0 mm
02:55 10.1 °C 9.8 °C 1007.7 hPa East 5.5 km/h 11.3 km/h 98 % 0 mm
03:00 10 °C 9.7 °C 1007.7 hPa East 5.5 km/h 7.4 km/h 98 % 0 mm
03:05 10.1 °C 9.8 °C 1007.7 hPa East 4.7 km/h 9.3 km/h 98 % 0 mm
03:10 10.1 °C 9.9 °C 1007.7 hPa ENE 5.3 km/h 7.4 km/h 99 % 0 mm
03:15 10.2 °C 10.1 °C 1007.3 hPa ENE 7.6 km/h 13 km/h 99 % 0 mm
03:20 10.3 °C 10 °C 1007.7 hPa East 8 km/h 9.7 km/h 98 % 0 mm
03:25 10.3 °C 10.2 °C 1007.3 hPa East 8.7 km/h 9.7 km/h 99 % 0 mm
03:30 10.3 °C 10.2 °C 1007.3 hPa East 8.5 km/h 11.1 km/h 99 % 0 mm
03:35 10.3 °C 10.1 °C 1007 hPa East 7.7 km/h 9.3 km/h 99 % 0.25 mm
03:40 10.2 °C 10.1 °C 1007 hPa East 7.2 km/h 9.3 km/h 99 % 0.51 mm
03:45 10.2 °C 10 °C 1007 hPa East 8.2 km/h 9.3 km/h 99 % 0.51 mm
03:50 10.2 °C 10 °C 1006.7 hPa ENE 5.3 km/h 7.4 km/h 99 % 0.51 mm
03:56 10.2 °C 10 °C 1006.7 hPa East 4.8 km/h 11.3 km/h 99 % 0 mm
04:00 10.2 °C 10 °C 1006.7 hPa ENE 5.1 km/h 11.1 km/h 99 % 0.51 mm
04:01 10.2 °C 10 °C 1006.7 hPa ENE 4.8 km/h 11.1 km/h 99 % 0.51 mm
04:06 10.2 °C 10.1 °C 1006.7 hPa ENE 8.5 km/h 11.1 km/h 99 % 0.76 mm
04:11 10.3 °C 10.1 °C 1006.3 hPa NE 4.8 km/h 13 km/h 99 % 0.76 mm
04:16 10.3 °C 10.1 °C 1006.7 hPa ENE 7.6 km/h 11.3 km/h 99 % 0.76 mm
04:21 10.3 °C 10.1 °C 1006.7 hPa NE 7.2 km/h 8 km/h 99 % 0.76 mm
04:26 10.3 °C 10.2 °C 1006.7 hPa ENE 7.7 km/h 13 km/h 99 % 0.76 mm
04:31 10.3 °C 10.2 °C 1006.7 hPa ENE 11.1 km/h 14.8 km/h 99 % 0.76 mm
04:36 10.3 °C 10.2 °C 1006.7 hPa ENE 11.3 km/h 18.5 km/h 99 % 0.51 mm
04:41 10.3 °C 10.2 °C 1006.7 hPa ENE 11.6 km/h 16.7 km/h 99 % 0.25 mm
04:46 10.3 °C 10.2 °C 1006.7 hPa ENE 15.1 km/h 16.7 km/h 99 % 0.25 mm
04:52 10.3 °C 10.2 °C 1006.7 hPa ENE 13 km/h 18.5 km/h 99 % 0.25 mm
04:57 10.3 °C 10.1 °C 1006.7 hPa East 11.6 km/h 16.7 km/h 99 % 0.25 mm
05:02 10.3 °C 10.1 °C 1007 hPa ENE 8.7 km/h 14.8 km/h 99 % 0.25 mm
05:07 10.3 °C 10.1 °C 1007 hPa East 6.8 km/h 9.3 km/h 99 % 0 mm
05:08 10.3 °C 10.1 °C 1007 hPa East 6 km/h 9.7 km/h 99 % 0 mm
05:13 10.3 °C 10.2 °C 1007 hPa East 6.8 km/h 9.3 km/h 99 % 0 mm
05:18 10.3 °C 10.2 °C 1007 hPa East 7.1 km/h 9.7 km/h 99 % 0 mm
05:23 10.3 °C 10.2 °C 1007 hPa ENE 5.6 km/h 7.4 km/h 99 % 0 mm
05:28 10.3 °C 10.1 °C 1007 hPa East 8 km/h 11.1 km/h 99 % 0 mm
05:33 10.3 °C 10.1 °C 1007 hPa ENE 4.5 km/h 7.4 km/h 99 % 0 mm
05:38 10.3 °C 10.1 °C 1007 hPa East 4.7 km/h 5.6 km/h 99 % 0 mm
05:43 10.3 °C 10.1 °C 1007 hPa East 7.6 km/h 16.7 km/h 99 % 0.25 mm
05:48 10.3 °C 10.1 °C 1007 hPa ENE 8.7 km/h 14.8 km/h 99 % 0.25 mm
05:53 10.2 °C 10.1 °C 1007 hPa ENE 10.5 km/h 14.8 km/h 99 % 0.25 mm
05:59 10.2 °C 10.1 °C 1007 hPa ENE 9.3 km/h 14.8 km/h 99 % 0.25 mm
06:04 10.2 °C 10 °C 1006.7 hPa East 7.9 km/h 13 km/h 99 % 0.25 mm
06:09 10.2 °C 10 °C 1006.7 hPa NE 8.2 km/h 13 km/h 99 % 0.51 mm
06:14 10.2 °C 10 °C 1006.7 hPa ENE 5.5 km/h 11.1 km/h 99 % 0.51 mm
06:19 10.2 °C 10.1 °C 1006.7 hPa NNE 5.3 km/h 7.4 km/h 99 % 0.76 mm
06:24 10.2 °C 10.1 °C 1006.7 hPa NE 6.9 km/h 13 km/h 99 % 0.76 mm
06:29 10.2 °C 10.1 °C 1006.7 hPa ENE 5 km/h 11.3 km/h 99 % 1.02 mm
06:34 10.2 °C 10.1 °C 1006.7 hPa NNE 8.7 km/h 13 km/h 99 % 1.02 mm
06:44 10.2 °C 10.1 °C 1006.7 hPa ENE 6.3 km/h 8 km/h 99 % 0.76 mm
06:49 10.2 °C 10.1 °C 1006.7 hPa NNE 6.6 km/h 9.7 km/h 99 % 0.76 mm
06:55 10.2 °C 10.1 °C 1006.7 hPa NE 6.8 km/h 11.1 km/h 99 % 0.76 mm
07:00 10.2 °C 10.1 °C 1006.7 hPa NNE 4.7 km/h 11.3 km/h 99 % 0.76 mm
07:05 10.2 °C 10.1 °C 1006.7 hPa NNE 4.3 km/h 9.3 km/h 99 % 0.76 mm
07:10 10.2 °C 10.1 °C 1006.7 hPa North 5.3 km/h 8 km/h 99 % 0.51 mm
07:15 10.2 °C 10.1 °C 1006.7 hPa ENE 5.1 km/h 13 km/h 99 % 0.51 mm
07:20 10.2 °C 10.1 °C 1006.7 hPa NE 6.1 km/h 13 km/h 99 % 0.25 mm
07:25 10.2 °C 10.1 °C 1006.7 hPa ENE 3.5 km/h 7.4 km/h 99 % 0 mm
07:30 10.2 °C 10.1 °C 1006.7 hPa ENE 7.9 km/h 12.9 km/h 99 % 0 mm
07:35 10.2 °C 10.1 °C 1006.7 hPa ENE 5.6 km/h 11.1 km/h 99 % 0 mm
07:40 10.2 °C 10.1 °C 1006.7 hPa ENE 6 km/h 7.4 km/h 99 % 0 mm
07:45 10.2 °C 10.1 °C 1007 hPa ENE 7.4 km/h 11.3 km/h 99 % 0 mm
07:50 10.2 °C 10.1 °C 1007 hPa ENE 4.2 km/h 11.1 km/h 99 % 0 mm
07:55 10.2 °C 10.1 °C 1007 hPa ENE 3.1 km/h 5.6 km/h 99 % 0.25 mm
08:00 10.2 °C 10 °C 1007 hPa ENE 7.9 km/h 11.1 km/h 99 % 0.25 mm
08:05 10.2 °C 10 °C 1007 hPa ENE 5.5 km/h 13 km/h 99 % 0.51 mm
08:10 10.2 °C 10 °C 1007 hPa ENE 6.1 km/h 7.4 km/h 99 % 0.76 mm
08:16 10.2 °C 10 °C 1007 hPa ENE 4.8 km/h 11.3 km/h 99 % 0 mm
08:21 10.2 °C 10.1 °C 1007 hPa ENE 4.8 km/h 11.3 km/h 99 % 0 mm
08:26 10.2 °C 10.1 °C 1007 hPa ENE 8 km/h 12.9 km/h 99 % 0 mm
08:31 10.2 °C 10.1 °C 1007 hPa ENE 8 km/h 11.3 km/h 99 % 0 mm
08:36 10.2 °C 10.1 °C 1007 hPa ENE 8 km/h 11.3 km/h 99 % 0 mm
08:41 10.3 °C 10.1 °C 1007 hPa ENE 3.2 km/h 11.3 km/h 99 % 0 mm
08:45 10.3 °C 10.1 °C 1007 hPa ENE 2.3 km/h 5.6 km/h 99 % 1.02 mm
08:50 10.3 °C 10.2 °C 1007 hPa ENE 2.7 km/h 7.4 km/h 99 % 1.02 mm
08:55 10.3 °C 10.2 °C 1007 hPa ENE 2.4 km/h 3.2 km/h 99 % 0.76 mm
09:01 10.4 °C 10.2 °C 1007 hPa ENE 2.6 km/h 4.8 km/h 99 % 0.76 mm
09:06 10.4 °C 10.2 °C 1007 hPa Calm   6.4 km/h 99 % 0 mm
09:11 10.4 °C 10.2 °C 1007.3 hPa ENE 1.6 km/h 4.8 km/h 99 % 0 mm
09:16 10.4 °C 10.3 °C 1007 hPa ENE 6.1 km/h 11.1 km/h 99 % 0 mm
09:21 10.4 °C 10.3 °C 1007 hPa ENE 6.1 km/h 11.1 km/h 99 % 0 mm
09:26 10.4 °C 10.3 °C 1007 hPa ENE 8.4 km/h 13 km/h 99 % 0 mm
09:31 10.4 °C 10.3 °C 1007 hPa ENE 5.5 km/h 11.1 km/h 99 % 0 mm
09:36 10.6 °C 10.4 °C 1007 hPa ENE 5 km/h 8 km/h 99 % 0 mm
09:41 10.6 °C 10.4 °C 1007 hPa East 6 km/h 9.3 km/h 99 % 0 mm
09:46 10.7 °C 10.5 °C 1007 hPa ENE 4.2 km/h 9.3 km/h 99 % 0 mm
09:51 10.8 °C 10.6 °C 1007 hPa NE 4.5 km/h 6.4 km/h 99 % 0 mm
09:56 11.1 °C 10.9 °C 1007 hPa NE 5 km/h 9.3 km/h 99 % 0 mm
10:01 11.4 °C 11.3 °C 1007 hPa NNE 5.5 km/h 13 km/h 99 % 0 mm
10:06 11.7 °C 11.5 °C 1007 hPa ENE 5 km/h 11.3 km/h 99 % 0 mm
10:11 11.5 °C 11.3 °C 1007 hPa NE 5.3 km/h 7.4 km/h 99 % 0 mm
10:16 11.4 °C 11.3 °C 1006.7 hPa East 8.9 km/h 14.8 km/h 99 % 0 mm
10:21 11.4 °C 11.2 °C 1007 hPa NE 4.8 km/h 8 km/h 99 % 0 mm
10:26 11.3 °C 11.2 °C 1007 hPa ENE 7.4 km/h 13 km/h 99 % 0 mm
10:31 11.2 °C 11 °C 1007 hPa ENE 5.3 km/h 13 km/h 99 % 0 mm
10:36 11.1 °C 10.9 °C 1007 hPa NE 6.9 km/h 7.4 km/h 99 % 0 mm
10:41 10.9 °C 10.8 °C 1007.3 hPa NE 5 km/h 13 km/h 99 % 0 mm
10:46 10.9 °C 10.7 °C 1007.3 hPa ENE 7.4 km/h 9.7 km/h 99 % 0 mm
10:52 10.9 °C 10.7 °C 1007.3 hPa ENE 6.4 km/h 11.1 km/h 99 % 0 mm
10:57 11 °C 10.8 °C 1007.3 hPa East 8.4 km/h 11.1 km/h 99 % 0 mm
11:02 11 °C 10.8 °C 1007.3 hPa East 10.1 km/h 13 km/h 99 % 0 mm
11:07 11.1 °C 10.9 °C 1007.3 hPa East 10.1 km/h 14.8 km/h 99 % 0 mm
11:12 11.1 °C 10.9 °C 1007.3 hPa ENE 7.7 km/h 18.5 km/h 99 % 0 mm
11:17 11.1 °C 10.9 °C 1007.3 hPa ENE 6.9 km/h 13 km/h 99 % 0 mm
11:22 11.1 °C 10.9 °C 1007.3 hPa East 4.8 km/h 7.4 km/h 99 % 0 mm
11:27 11.2 °C 11 °C 1007.3 hPa NE 4.2 km/h 5.6 km/h 99 % 0 mm
11:32 11.1 °C 10.9 °C 1007 hPa ENE 5.3 km/h 7.4 km/h 99 % 0 mm
11:37 11.2 °C 11 °C 1007.3 hPa ENE 3.4 km/h 5.6 km/h 99 % 0 mm
11:43 11.2 °C 11 °C 1007.3 hPa East 3.2 km/h 5.6 km/h 99 % 0 mm
11:48 11.3 °C 11.1 °C 1007.3 hPa ENE 3.2 km/h 5.6 km/h 99 % 0 mm
11:53 11.3 °C 11.2 °C 1007.3 hPa East 3.5 km/h 9.3 km/h 99 % 0 mm
11:58 11.3 °C 11.2 °C 1007.3 hPa ENE 7.1 km/h 13 km/h 99 % 0 mm
12:01 11.3 °C 11.2 °C 1007 hPa ENE 4 km/h 11.1 km/h 99 % 0 mm
12:06 11.3 °C 11.2 °C 1007 hPa ENE 3.7 km/h 7.4 km/h 99 % 0 mm
12:11 11.4 °C 11.3 °C 1007.3 hPa ENE 5.5 km/h 11.1 km/h 99 % 0 mm
12:16 11.4 °C 11.3 °C 1007 hPa ENE 7.4 km/h 8 km/h 99 % 0 mm
12:21 11.5 °C 11.3 °C 1007.3 hPa ENE 7.4 km/h 11.1 km/h 99 % 0 mm
12:26 11.6 °C 11.4 °C 1007.3 hPa ENE 4.3 km/h 6.4 km/h 99 % 0 mm
12:31 11.6 °C 11.4 °C 1007.3 hPa NE 5.6 km/h 7.4 km/h 99 % 0 mm
12:36 11.7 °C 11.5 °C 1007.3 hPa ENE 5.1 km/h 11.1 km/h 99 % 0 mm
12:41 11.7 °C 11.6 °C 1007.3 hPa ENE 5 km/h 9.3 km/h 99 % 0 mm
12:46 11.7 °C 11.6 °C 1007.3 hPa East 6.1 km/h 9.3 km/h 99 % 0 mm
12:51 11.8 °C 11.6 °C 1007 hPa East 4.8 km/h 8 km/h 99 % 0 mm
12:56 11.8 °C 11.6 °C 1007.3 hPa East 5.8 km/h 8 km/h 99 % 0 mm
13:01 11.8 °C 11.7 °C 1007 hPa ENE 6.8 km/h 7.4 km/h 99 % 0 mm
13:07 11.9 °C 11.7 °C 1007 hPa East 6.9 km/h 9.3 km/h 99 % 0 mm
13:12 12 °C 11.8 °C 1007 hPa East 5.3 km/h 9.7 km/h 99 % 0 mm
13:17 12.1 °C 11.9 °C 1007 hPa East 6.6 km/h 8 km/h 99 % 0 mm
13:22 12.1 °C 11.9 °C 1007 hPa ENE 6 km/h 8 km/h 99 % 0 mm
13:27 12.2 °C 12.1 °C 1007 hPa ENE 5.5 km/h 8 km/h 99 % 0 mm
13:32 12.3 °C 12.2 °C 1007 hPa East 7.7 km/h 9.7 km/h 99 % 0 mm
13:37 12.4 °C 12.3 °C 1007 hPa East 5.6 km/h 9.3 km/h 99 % 0 mm
13:42 12.4 °C 12.3 °C 1007 hPa East 5.6 km/h 9.3 km/h 99 % 0 mm
13:47 12.4 °C 12.3 °C 1007 hPa ENE 4.5 km/h 7.4 km/h 99 % 0 mm
13:48 12.4 °C 12.3 °C 1007 hPa ENE 5.8 km/h 9.7 km/h 99 % 0 mm
13:53 12.4 °C 12.2 °C 1007 hPa ENE 5.1 km/h 8 km/h 99 % 0 mm
13:58 12.3 °C 12 °C 1007 hPa ENE 4.8 km/h 7.4 km/h 98 % 0 mm
14:03 12.3 °C 12 °C 1007 hPa NE 5.6 km/h 7.4 km/h 98 % 0 mm
14:09 12.3 °C 12 °C 1007 hPa East 5.1 km/h 5.6 km/h 98 % 0 mm
14:14 12.4 °C 12.1 °C 1007 hPa ENE 6.4 km/h 9.3 km/h 98 % 0 mm
14:19 12.4 °C 12.1 °C 1007.3 hPa East 5.1 km/h 8 km/h 98 % 0 mm
14:24 12.5 °C 12.2 °C 1007.3 hPa East 5 km/h 8 km/h 98 % 0 mm
14:29 12.6 °C 12.2 °C 1007.3 hPa ENE 4.2 km/h 5.6 km/h 98 % 0 mm
14:34 12.7 °C 12.3 °C 1007 hPa ENE 6.1 km/h 7.4 km/h 98 % 0 mm
14:39 12.7 °C 12.4 °C 1007 hPa ENE 5.6 km/h 8 km/h 98 % 0 mm
14:44 12.7 °C 12.4 °C 1007 hPa ENE 6.8 km/h 9.3 km/h 98 % 0 mm
14:49 12.7 °C 12.4 °C 1007.3 hPa East 5.5 km/h 9.3 km/h 98 % 0 mm
14:54 12.8 °C 12.4 °C 1007 hPa East 8 km/h 11.1 km/h 98 % 0 mm
14:59 12.9 °C 12.6 °C 1007 hPa East 8 km/h 11.1 km/h 98 % 0 mm
15:05 13 °C 12.7 °C 1007 hPa East 6.1 km/h 9.7 km/h 98 % 0 mm
15:10 13.1 °C 12.7 °C 1007 hPa East 5 km/h 11.1 km/h 98 % 0 mm
15:11 13.1 °C 12.7 °C 1007 hPa East 4.8 km/h 11.3 km/h 98 % 0 mm
15:16 13.1 °C 12.7 °C 1007 hPa East 8 km/h 11.3 km/h 98 % 0 mm
15:20 13.1 °C 12.6 °C 1007 hPa ENE 9.5 km/h 9.7 km/h 97 % 0 mm
15:26 13.2 °C 12.7 °C 1007 hPa East 4.8 km/h 11.3 km/h 97 % 0 mm
15:31 13.3 °C 13 °C 1007 hPa East 4.8 km/h 9.7 km/h 98 % 0 mm
15:36 13.6 °C 13.2 °C 1006.7 hPa ENE 4.8 km/h 9.7 km/h 98 % 0 mm
15:41 13.9 °C 13.6 °C 1006.7 hPa ENE 6.8 km/h 9.3 km/h 98 % 0 mm
15:46 14.1 °C 13.7 °C 1006.7 hPa ENE 5.1 km/h 5.6 km/h 98 % 0 mm
15:51 14.1 °C 13.8 °C 1006.7 hPa ENE 8 km/h 11.3 km/h 98 % 0 mm
15:56 14.2 °C 13.8 °C 1006.7 hPa East 9.7 km/h 12.9 km/h 98 % 0 mm
16:01 14.2 °C 13.7 °C 1006.7 hPa East 5.8 km/h 9.3 km/h 97 % 0 mm
16:06 14.3 °C 13.9 °C 1006.7 hPa East 5.8 km/h 8 km/h 98 % 0 mm
16:11 14.3 °C 13.9 °C 1006.7 hPa East 5.1 km/h 13 km/h 97 % 0 mm
16:16 14.4 °C 14 °C 1006.7 hPa ENE 5.6 km/h 9.3 km/h 97 % 0 mm
16:21 14.5 °C 14.1 °C 1006.7 hPa East 5 km/h 8 km/h 97 % 0 mm
16:26 14.7 °C 14.3 °C 1006.7 hPa ENE 6 km/h 7.4 km/h 98 % 0 mm
16:31 14.7 °C 14.3 °C 1006.7 hPa East 5.5 km/h 8 km/h 97 % 0 mm
16:36 14.8 °C 14.4 °C 1006.7 hPa East 9.3 km/h 11.3 km/h 97 % 0 mm
16:41 14.9 °C 14.4 °C 1006.7 hPa ESE 7.4 km/h 9.7 km/h 97 % 0 mm
16:46 15 °C 14.6 °C 1006.7 hPa East 6.1 km/h 11.1 km/h 97 % 0 mm
16:51 15.1 °C 14.6 °C 1006.7 hPa East 6 km/h 9.3 km/h 97 % 0 mm
16:56 15.1 °C 14.6 °C 1006.7 hPa East 5 km/h 8 km/h 97 % 0 mm
17:01 15.1 °C 14.5 °C 1006.7 hPa East 6.4 km/h 8 km/h 96 % 0 mm
17:06 15.1 °C 14.5 °C 1006.7 hPa East 5.8 km/h 8 km/h 96 % 0 mm
17:11 15.2 °C 14.6 °C 1006.7 hPa East 4.3 km/h 5.6 km/h 96 % 0 mm
17:16 15.2 °C 14.6 °C 1006.7 hPa East 6.1 km/h 8 km/h 96 % 0 mm
17:22 15.3 °C 14.7 °C 1006.7 hPa East 6.1 km/h 7.4 km/h 96 % 0 mm
17:27 15.3 °C 14.7 °C 1006.7 hPa ENE 2.4 km/h 5.6 km/h 96 % 0 mm
17:32 15.3 °C 14.5 °C 1007 hPa ENE 2.6 km/h 5.6 km/h 95 % 0 mm
17:37 15.2 °C 14.4 °C 1007 hPa ENE 4 km/h 5.6 km/h 95 % 0 mm
17:42 15.1 °C 14.2 °C 1007 hPa ENE 1.9 km/h 3.7 km/h 94 % 0 mm
17:47 15.1 °C 14.1 °C 1007 hPa ENE 0.6 km/h 1.9 km/h 94 % 0 mm
17:52 15 °C 14.1 °C 1007 hPa ENE 0.6 km/h 1.9 km/h 94 % 0 mm
17:57 14.9 °C 14 °C 1007 hPa ENE 2.1 km/h 3.7 km/h 94 % 0 mm
18:02 14.9 °C 14 °C 1007 hPa East 4.2 km/h 7.4 km/h 94 % 0 mm
18:07 14.9 °C 14.2 °C 1007 hPa East 4 km/h 8 km/h 95 % 0 mm
18:12 14.9 °C 14.2 °C 1007 hPa East 2.7 km/h 5.6 km/h 95 % 0 mm
18:18 14.9 °C 14.2 °C 1007 hPa East 2.9 km/h 5.6 km/h 95 % 0 mm
18:23 14.9 °C 14.2 °C 1007 hPa East 0.3 km/h 1.9 km/h 95 % 0 mm
18:28 14.9 °C 14.2 °C 1007 hPa East 0.8 km/h 3.7 km/h 95 % 0 mm
18:33 14.9 °C 14.2 °C 1007 hPa East 0.2 km/h 3.7 km/h 95 % 0 mm
18:38 14.9 °C 14.2 °C 1007 hPa East 0.5 km/h 1.9 km/h 95 % 0 mm
18:43 15 °C 14.2 °C 1007 hPa Calm   1.9 km/h 95 % 0 mm
18:48 15.1 °C 14.3 °C 1007 hPa Calm     95 % 0 mm
18:53 15.1 °C 14.3 °C 1007 hPa Calm   1.9 km/h 95 % 0 mm
18:58 15.1 °C 14.3 °C 1007 hPa East 0.2 km/h 1.9 km/h 95 % 0 mm
19:04 15.2 °C 14.4 °C 1007.3 hPa East 0.5 km/h 3.7 km/h 95 % 0 mm
19:09 15.2 °C 14.4 °C 1007.3 hPa Calm     95 % 0 mm
19:14 15.2 °C 14.4 °C 1007.3 hPa East 0.6 km/h 1.9 km/h 95 % 0 mm
19:19 15.3 °C 14.5 °C 1007.7 hPa East 0.5 km/h 5.6 km/h 95 % 0 mm
19:24 15.3 °C 14.5 °C 1007.7 hPa ENE 1 km/h 3.7 km/h 95 % 0 mm
19:29 15.2 °C 14.4 °C 1007.7 hPa Calm     95 % 0 mm
19:34 15.2 °C 14.4 °C 1008 hPa North 1.6 km/h 4.8 km/h 95 % 0 mm
19:39 15 °C 13.9 °C 1008 hPa NNW 4.5 km/h 5.6 km/h 93 % 0 mm
19:44 14.7 °C 13.4 °C 1008.4 hPa WNW 4.7 km/h 11.1 km/h 92 % 0 mm
19:49 14.4 °C 13 °C 1008.4 hPa WNW 4.7 km/h 5.6 km/h 91 % 0 mm
19:54 14.3 °C 12.8 °C 1008.4 hPa WNW 0.3 km/h 3.7 km/h 91 % 0 mm
19:59 14.1 °C 12.7 °C 1008.4 hPa Calm     91 % 0 mm
20:04 14 °C 12.6 °C 1008.4 hPa Calm   3.7 km/h 91 % 0 mm
20:10 13.9 °C 12.6 °C 1008.4 hPa Calm     92 % 0 mm
20:15 13.8 °C 12.5 °C 1008.4 hPa Calm   1.9 km/h 92 % 0 mm
20:20 13.7 °C 12.4 °C 1008.4 hPa Calm     92 % 0 mm
20:25 13.6 °C 12.3 °C 1008.4 hPa Calm     92 % 0 mm
20:30 13.4 °C 12.2 °C 1008.4 hPa Calm     92 % 0 mm
20:35 13.4 °C 12.3 °C 1008.4 hPa Calm     93 % 0 mm
20:40 13.3 °C 12.2 °C 1008.7 hPa Calm     93 % 0 mm
20:45 13.2 °C 12.1 °C 1008.4 hPa Calm     93 % 0 mm
20:50 13.2 °C 12.1 °C 1008.7 hPa Calm     93 % 0 mm
20:55 13.2 °C 12.2 °C 1008.7 hPa Calm     94 % 0 mm
21:00 13.1 °C 12.2 °C 1008.7 hPa Calm     94 % 0 mm
21:06 13.1 °C 12.1 °C 1008.7 hPa Calm   1.6 km/h 94 % 0 mm
21:09 13.1 °C 12.1 °C 1008.7 hPa Calm     94 % 0 mm
21:14 13 °C 12.1 °C 1008.7 hPa Calm     94 % 0 mm
21:19 12.9 °C 12.2 °C 1008.7 hPa Calm     95 % 0 mm
21:24 12.9 °C 12.1 °C 1008.7 hPa Calm     95 % 0 mm
21:29 12.8 °C 12.1 °C 1008.7 hPa WNW 0.3 km/h 1.9 km/h 95 % 0 mm
21:34 12.8 °C 12 °C 1008.7 hPa WNW 0.6 km/h 3.7 km/h 95 % 0 mm
21:39 12.7 °C 11.9 °C 1008.7 hPa Calm     95 % 0 mm
21:44 12.7 °C 11.9 °C 1008.7 hPa Calm     95 % 0 mm
21:49 12.6 °C 11.8 °C 1008.7 hPa Calm     95 % 0 mm
21:55 12.4 °C 11.7 °C 1008.7 hPa Calm     95 % 0 mm
22:00 12.4 °C 11.6 °C 1008.7 hPa Calm     95 % 0 mm
22:05 12.3 °C 11.5 °C 1009 hPa Calm     95 % 0 mm
22:10 12.2 °C 11.4 °C 1009 hPa Calm     95 % 0 mm
22:15 12.2 °C 11.4 °C 1009.4 hPa WNW 0.2 km/h 1.9 km/h 95 % 0 mm
22:20 12.1 °C 11.3 °C 1009 hPa Calm     95 % 0 mm
22:25 12.1 °C 11.3 °C 1009 hPa Calm     95 % 0 mm
22:30 12.1 °C 11.3 °C 1009 hPa Calm     95 % 0 mm
22:35 12 °C 11.4 °C 1009.4 hPa WNW 0.3 km/h 1.9 km/h 96 % 0 mm
22:40 12 °C 11.4 °C 1009.4 hPa Calm     96 % 0 mm
22:45 12 °C 11.4 °C 1009.4 hPa Calm     96 % 0 mm
22:51 12 °C 11.4 °C 1009.4 hPa Calm   3.2 km/h 96 % 0 mm
22:56 12 °C 11.4 °C 1009.4 hPa Calm   1.6 km/h 96 % 0 mm
23:01 12 °C 11.4 °C 1009.4 hPa Calm     96 % 0 mm
23:06 12 °C 11.4 °C 1009.4 hPa Calm   1.6 km/h 96 % 0 mm
23:11 12.1 °C 11.4 °C 1009.4 hPa Calm     96 % 0 mm
23:16 12.1 °C 11.4 °C 1009.4 hPa Calm     96 % 0 mm
23:21 12.1 °C 11.4 °C 1009.4 hPa Calm     96 % 0 mm
23:26 12.1 °C 11.4 °C 1009.4 hPa Calm   1.6 km/h 96 % 0 mm
23:31 12.1 °C 11.6 °C 1009.7 hPa WNW 1.6 km/h 3.2 km/h 97 % 0 mm
23:36 12.1 °C 11.7 °C 1009.4 hPa Calm     97 % 0 mm
23:41 12.1 °C 11.7 °C 1009.4 hPa Calm     97 % 0 mm
23:46 12.1 °C 11.7 °C 1009.4 hPa Calm     97 % 0 mm
23:51 12.1 °C 11.7 °C 1009.7 hPa Calm     97 % 0 mm
23:56 12.1 °C 11.6 °C 1009.7 hPa Calm     97 % 0 mm
Crab Meadow Weather
Compliments of Weather Underground - 3 mb

Script developed by  Jim McMurry - jmcmurry@mwt.net Adapted for the template by  Wim van der Kuil - Leuven-Template.eu

Weather Terms: Blizzard Warning - Sustained winds or frequent gusts of 35 mph or greater, considerable falling and/or blowing snow reducing visibility frequently to 1/4 mile or less for a period of three hours or more. There are no temperature criteria in the definition of a blizzard but freezing temperatures and 35 mph winds will create sub-zero wind chills.